Location: Kalama
(46.0086°N, 122.8433°W)
Time: 06:21:13
(UTC-08:00)

ISS - Visible Passes

Search period start: 04 December 2020 00:00
Search period end: 14 December 2020 00:00
Orbit: 418 x 420 km, 51.6° (Epoch: 04 December)

Date Brightness Start Highest point End Pass type
(mag) Time Alt. Az. Time Alt. Az. Time Alt. Az.
04 Dec -2.9 17:00:35 10° WNW 17:03:43 35° NNE 17:06:52 10° E visible
04 Dec -3.2 18:37:22 10° WNW 18:40:11 57° W 18:40:11 57° W visible
05 Dec -3.9 17:49:46 10° WNW 17:53:08 78° NNE 17:54:57 25° ESE visible
05 Dec -0.5 19:27:11 10° W 19:27:57 14° W 19:27:57 14° W visible
06 Dec -3.6 17:02:10 10° WNW 17:05:29 55° NNE 17:08:48 10° E visible
06 Dec -2.0 18:39:12 10° WNW 18:42:09 29° SW 18:42:55 26° SSW visible
07 Dec -2.7 17:51:24 10° WNW 17:54:39 45° SW 17:57:52 10° SE visible
08 Dec -3.5 17:03:43 10° WNW 17:07:04 72° SSW 17:10:25 10° SE visible
08 Dec -0.5 18:42:04 10° WSW 18:43:20 12° SW 18:44:37 10° SSW visible
09 Dec -0.9 17:53:29 10° W 17:55:55 19° SW 17:58:20 10° S visible
10 Dec -1.5 17:05:27 10° WNW 17:08:25 29° SW 17:11:23 10° SSE visible
12 Dec -0.1 17:08:12 10° WSW 17:09:31 12° SW 17:10:50 10° SSW visible
